Location: La Pernelle
(49.6188°N, 1.2999°W)
Time: 12:06:13
(UTC+00:00)

Cosmos 1954 Rocket - Pass Details

Date: 28 October 2021
Orbit: 751 x 782 km, 74.0° (Epoch: 26 November)

Event Time Altitude Azimuth Distance (km) Brightness Sun altitude
Rises 17:33:43 0° 342° (NNW) 3,240 7.3 -7.7°
Reaches altitude 10° 17:36:41 10° 359° (N) 2,316 6.4 -8.2°
Maximum altitude 17:40:36 21° 48° (NE) 1,696 5.3 -8.8°
Enters shadow 17:44:15 11° 94° (E) 2,249 5.8 -9.4°
